Regional Weather Roundup
Issued by NWS Midland/Odessa, TX

Home | Current Version | Previous Version | Text Only | Print | Product List | Glossary On
Versions: 1 2 3 4 5 6 7 8 9 10 11 12 13 14 15 16 17 18 19 20 21 22 23 24 25 26 27 28 29 30 31 32 33 34 35 36 37 38 39 40 41 42 43 44 45 46 47 48 49 50
000
ASUS44 KMAF 281010
RWRMAF
MIDLAND AREA WEATHER ROUNDUP
NATIONAL WEATHER SERVICE MIDLAND TX
400 AM CST TUE FEB 28 2017

...IN SOUTHWEST TEXAS AND SOUTHEAST NEW MEXICO...

CITY           SKY/WX    TMP DP  RH WIND       PRES   REMARKS
ALPINE         CLOUDY    55  22  27 SW6       30.04R
ANDREWS        FAIR      59  25  27 SW8       29.90S
ARTESIA        PTCLDY    57  30  35 SW17      29.85F
BIG SPRING     MOCLDY    55  37  51 SE9       29.90R
CARLSBAD       PTCLDY    57  27  31 W12       29.85F
DRYDEN           N/A     56  46  69 W6        29.87S
FORT STOCKTON  MOCLDY    62  23  22 SW15      29.90S
GUAD PASS      CLOUDY    54  27  35 W22G30    29.96F
HOBBS          CLOUDY    50  23  34 S7        29.90F
MARFA          CLOUDY    47  21  35 SE7       30.03R
MIDLAND AIRPK  PTCLDY    64  47  52 SW12G17   29.90R
MIDLAND INTL   PTCLDY    61  44  53 SW10      29.90R
ODESSA         PTCLDY    55  33  43 SW6       29.90R
PECOS          MOCLDY    52  25  35 SW3       29.89F
PRESIDIO       FAIR      60  18  20 CALM      29.98R
SEMINOLE       PTCLDY    55  25  30 SW8       29.90S
SNYDER         MOCLDY    55  32  41 S7        29.87S
WINK           MOCLDY    53  24  32 SW5       29.87F
$$
...OTHER STATIONS IN TEXAS...

CITY           SKY/WX    TMP DP  RH WIND       PRES   REMARKS
ABILENE        PTCLDY    62  55  77 S9        29.85F
AMARILLO       CLOUDY    49  23  36 SW12      29.78F
AUSTIN         CLOUDY    71  68  90 S7        29.91S FOG
BROWNSVILLE    MOCLDY    73  72  96 S15       29.91F
CORPUS CHRISTI CLOUDY    73  72  96 S16       29.90F
DALLAS FTW     CLOUDY    70  66  87 S14G24    29.84F
DEL RIO        MOCLDY    64  62  93 E9        29.86F FOG
EL PASO        CLOUDY    60  15  17 SW9       29.94R
HOUSTON INT    LGT RAIN  73  70  90 S10       29.97R FOG
LUBBOCK        CLOUDY    60  23  24 SW17      29.85R
SAN ANGELO     MOCLDY    65  60  84 S16G23    29.85F
SAN ANTONIO    LGT RAIN  70  67  90 SE5       29.92F FOG
WACO           CLOUDY    69  66  90 S15       29.89F
WICHITA FALLS  NOT AVBL
$$
...OTHER LOCATIONS IN NEW MEXICO...

CITY           SKY/WX    TMP DP  RH WIND       PRES   REMARKS
ALAMAGORDO     PTCLDY    57  27  30 S15G22    29.93R
ALBUQUERQUE    CLOUDY    47  32  56 SW16      29.81F
CANNON AFB     CLOUDY    51  25  35 SW12      29.82F
CLOVIS         CLOUDY    54  27  35 SW14      29.82S
HOLLOMAN AFB   CLOUDY    54  29  38 S10       29.94S
ROSWELL        CLOUDY    62  23  22 SW22G29     N/A
RUIDOSO        CLOUDY    46  25  42 SW25G36   29.91S WCI  38
SANTA FE       CLOUDY    39  33  79 E3        29.81F
TRUTH OR CONSE CLOUDY    52  31  44 SW8       29.87F
TUCUMCARI      CLOUDY    54  21  27 SW15      29.75F
$$



USA.gov is the U.S. government's official web portal to all federal, state and local government web resources and services.